W7YP Weather Reports


time (UTC)temp
C
wind
direction
speed
KPH
gust
KPH
rain 1hr
cm
rain 24hr
cm
rain mn
cm
humidity
%
barometer
mb
20260508023452 13 329 0.0 0.0 0.00 0.94 0.89 78 1013.1
20260508022952 13 329 0.0 0.0 0.00 0.94 0.89 76 1013.1
20260508022447 14 329 0.0 1.6 0.00 0.94 0.89 74 1013.1
20260508021947 15 329 0.0 1.6 0.00 0.94 0.89 72 1013.0
20260508021929 15 329 0.0 0.0 0.00 0.94 0.89 69 1013.0
20260508020938 16 329 0.0 0.0 0.00 0.94 0.89 68 1013.0
20260508020438 16 329 0.0 0.0 0.00 0.94 0.89 67 1013.0
20260508015938 16 329 0.0 1.6 0.00 0.94 0.89 64 1013.0
20260508015922 17 329 0.0 1.6 0.00 0.94 0.89 64 1012.9
20260508014923 17 329 0.0 1.6 0.00 0.94 0.89 59 1012.9
20260508014426 17 331 0.0 4.8 0.00 0.94 0.89 60 1013.0
20260508013921 17 331 0.0 4.8 0.00 0.94 0.89 58 1013.0
20260508013416 17 163 0.0 4.8 0.00 0.94 0.89 56 1012.8
20260508012911 17 291 0.0 4.8 0.00 0.94 0.89 57 1012.9
20260508012406 17 290 0.0 4.8 0.00 0.94 0.89 57 1012.8
20260508011905 17 277 0.0 4.8 0.00 0.94 0.89 58 1012.8
20260508011405 17 277 1.6 4.8 0.00 0.94 0.89 57 1012.8
20260508010904 17 306 0.0 8.0 0.00 0.94 0.89 59 1012.8
20260508010405 17 307 3.2 8.0 0.00 0.94 0.89 58 1012.9
20260508005855 17 174 0.0 11.3 0.00 0.94 0.89 57 1012.8
20260508005350 17 211 1.6 11.3 0.00 0.94 0.89 56 1012.8
20260508004845 17 205 1.6 16.1 0.00 0.94 0.89 56 1012.9
20260508004348 17 349 3.2 16.1 0.00 0.94 0.89 54 1012.9
20260508003840 18 344 1.6 14.5 0.00 0.94 0.89 54 1012.8
20260508003341 18 5 0.0 14.5 0.00 0.94 0.89 55 1012.9
20260508002840 18 9 1.6 14.5 0.00 0.94 0.89 55 1013.0
20260508002340 18 298 3.2 14.5 0.00 0.94 0.89 56 1013.0
20260508001830 18 281 3.2 14.5 0.00 0.94 0.89 55 1013.0
20260508001325 18 242 1.6 12.9 0.00 0.94 0.89 56 1013.0
20260508000825 18 11 1.6 12.9 0.00 0.94 0.89 56 1013.0
20260508000324 18 313 1.6 16.1 0.00 0.94 0.89 55 1013.1
20260507235820 18 236 3.2 17.7 0.00 0.94 0.89 55 1012.9
20260507235311 18 25 3.2 17.7 0.00 0.94 0.89 53 1013.1
20260507234811 18 352 3.2 12.9 0.00 0.94 0.89 53 1013.1
20260507234312 18 327 3.2 17.7 0.00 0.94 0.89 53 1013.0
20260507233812 18 352 1.6 17.7 0.00 0.94 0.89 52 1013.1
20260507233306 18 237 3.2 9.7 0.00 0.94 0.89 51 1013.0
20260507232801 18 334 0.0 12.9 0.00 0.94 0.89 52 1013.1
20260507232301 18 55 3.2 12.9 0.00 0.94 0.89 51 1013.1
20260507232020 18 352 1.6 16.1 0.00 0.94 0.89 51 1013.3
20260507231528 18 32 6.4 17.7 0.00 0.94 0.89 49 1013.0
20260507230802 18 288 3.2 17.7 0.00 0.94 0.89 51 1013.1
20260507230605 19 0 0.0 11.3 0.00 0.94 0.89 51 1013.3
20260507230504 19 182 3.2 12.9 0.00 0.94 0.89 49 1013.4
20260507225741 19 180 1.6 12.9 0.00 0.94 0.89 50 1013.5
20260507224753 19 294 3.2 12.9 0.00 0.94 0.89 52 1013.5
20260507224253 19 238 1.6 16.1 0.00 0.94 0.89 47 1013.5
20260507223753 19 223 3.2 16.1 0.00 0.94 0.89 49 1013.6
20260507223248 19 306 1.6 8.0 0.00 0.94 0.89 51 1013.6
20260507222739 18 323 1.6 4.8 0.00 0.94 0.89 52 1013.5
20260507222228 18 313 0.0 14.5 0.00 0.94 0.89 52 1013.6
20260507221728 18 167 1.6 14.5 0.00 0.94 0.89 52 1013.7
20260507221232 18 148 3.2 19.3 0.00 0.94 0.89 52 1013.8
20260507220729 18 98 4.8 19.3 0.00 0.94 0.89 55 1013.7
20260507220230 18 352 0.0 11.3 0.00 0.94 0.89 54 1013.8
20260507215725 18 182 3.2 9.7 0.00 0.94 0.89 55 1013.7
20260507215224 18 12 1.6 8.0 0.00 0.94 0.89 57 1013.8
20260507214725 18 316 1.6 8.0 0.00 0.94 0.89 58 1013.9
20260507214225 18 332 0.0 9.7 0.00 0.94 0.89 58 1014.0
20260507213725 18 283 3.2 16.1 0.00 0.94 0.89 56 1014.1
20260507213228 18 187 4.8 20.9 0.00 0.94 0.89 54 1014.1
20260507212724 18 166 4.8 20.9 0.00 0.94 0.89 54 1014.3
20260507212220 18 234 3.2 12.9 0.00 0.94 0.89 58 1014.3
20260507211721 18 331 3.2 14.5 0.00 0.94 0.89 58 1014.1
20260507211221 18 288 3.2 14.5 0.00 0.94 0.89 61 1014.1
20260507210721 18 62 3.2 14.5 0.00 0.94 0.89 60 1014.1
20260507210656 18 209 3.2 12.9 0.00 0.94 0.89 61 1014.3
20260507205712 18 248 0.0 12.9 0.00 0.94 0.89 63 1014.4
20260507205211 18 179 1.6 9.7 0.00 0.94 0.89 59 1014.3
20260507204711 18 313 1.6 14.5 0.00 0.94 0.89 60 1014.4
20260507204207 18 91 3.2 14.5 0.00 0.94 0.89 59 1014.4
20260507203707 18 56 1.6 17.7 0.00 0.94 0.89 59 1014.5
20260507203207 18 180 3.2 17.7 0.00 0.94 0.89 60 1014.4
20260507202707 18 98 0.0 8.0 0.00 0.94 0.89 64 1014.6
20260507202653 18 325 1.6 9.7 0.00 0.94 0.89 62 1014.6
20260507201702 17 335 1.6 9.7 0.00 0.94 0.89 64 1014.6
20260507201157 17 225 0.0 8.0 0.00 0.94 0.89 68 1014.5
20260507200657 17 102 0.0 9.7 0.00 0.94 0.89 66 1014.6
20260507200153 17 230 1.6 8.0 0.00 0.94 0.89 67 1014.6
20260507195653 16 122 0.0 9.7 0.00 0.94 0.89 67 1014.6
20260507195153 16 209 4.8 9.7 0.00 0.94 0.89 68 1014.8
20260507194654 16 229 0.0 8.0 0.00 0.94 0.89 71 1014.7
20260507194412 16 337 1.6 4.8 0.00 0.94 0.89 71 1014.7
20260507193648 16 40 0.0 4.8 0.00 0.94 0.89 73 1014.8
20260507193149 16 36 0.0 4.8 0.00 0.94 0.89 74 1014.8
20260507192857 16 111 0.0 4.8 0.00 0.94 0.89 75 1014.8
20260507192139 15 88 0.0 8.0 0.00 0.94 0.89 78 1014.9
20260507191642 15 86 0.0 9.7 0.00 0.94 0.89 78 1014.9
20260507191401 15 109 1.6 9.7 0.00 0.94 0.89 81 1014.9
20260507190634 15 113 0.0 6.4 0.00 0.94 0.89 80 1015.0
20260507190129 15 211 1.6 6.4 0.00 0.94 0.89 79 1014.9
20260507185625 15 148 0.0 8.0 0.00 0.94 0.89 81 1015.1
20260507185125 15 203 1.6 8.0 0.00 0.94 0.89 81 1015.1
20260507184626 14 150 1.6 4.8 0.00 0.94 0.89 81 1015.3
20260507184353 14 205 0.0 4.8 0.00 0.94 0.89 83 1015.3
20260507183620 14 95 0.0 4.8 0.00 0.94 0.89 87 1015.3
20260507183116 13 101 0.0 9.7 0.00 0.94 0.89 87 1015.3
20260507182615 13 99 1.6 9.7 0.00 0.94 0.89 86 1015.4
20260507182116 13 116 0.0 4.8 0.00 0.94 0.89 88 1015.4
20260507181616 13 116 0.0 1.6 0.00 0.94 0.89 88 1015.4
20260507181116 13 117 0.0 0.0 0.00 0.94 0.89 89 1015.4
20260507180616 13 117 0.0 1.6 0.00 0.94 0.89 88 1015.5
20260507180112 13 117 0.0 1.6 0.00 0.94 0.89 88 1015.4
20260507175607 12 115 0.0 3.2 0.00 0.94 0.89 89 1015.4
20260507175553 12 115 0.0 3.2 0.00 0.94 0.89 88 1015.4
20260507174602 12 116 0.0 3.2 0.00 0.94 0.89 89 1015.3
20260507174102 12 116 0.0 4.8 0.00 0.94 0.89 89 1015.3
20260507173552 12 150 1.6 6.4 0.00 0.94 0.89 88 1015.4
20260507173055 12 163 0.0 6.4 0.00 0.94 0.89 88 1015.4
20260507172553 12 71 0.0 1.6 0.00 0.94 0.89 91 1015.3
20260507172048 12 70 0.0 6.4 0.00 0.94 0.89 92 1015.3
20260507171547 12 70 1.6 11.3 0.00 0.94 0.89 92 1015.4
20260507171306 12 133 0.0 11.3 0.00 0.94 0.89 94 1015.4
20260507170537 12 108 1.6 9.7 0.00 0.94 0.89 95 1015.4
20260507170303 11 58 0.0 3.2 0.00 0.94 0.89 96 1015.4
20260507165536 11 17 0.0 4.8 0.00 0.94 0.89 96 1015.5
20260507165030 11 139 0.0 4.8 0.00 0.94 0.89 97 1015.6
20260507164524 11 207 1.6 6.4 0.00 0.94 0.89 97 1015.6
20260507164024 11 69 1.6 9.7 0.00 0.94 0.89 98 1015.7
20260507163524 11 126 1.6 9.7 0.00 0.94 0.89 98 1015.7
20260507163024 11 117 0.0 3.2 0.00 0.94 0.89 98 1015.7
20260507162524 10 103 0.0 4.8 0.00 0.94 0.89 98 1015.7
20260507162025 10 104 1.6 4.8 0.00 0.94 0.89 98 1015.8
20260507161519 10 299 0.0 3.2 0.00 0.94 0.89 98 1015.8
20260507161240 10 299 0.0 1.6 0.00 0.94 0.89 98 1015.8
20260507160520 10 299 0.0 0.0 0.00 0.94 0.89 98 1015.8
20260507160015 10 299 0.0 0.0 0.00 0.94 0.89 98 1015.9
20260507155515 9 299 0.0 1.6 0.00 0.94 0.89 98 1015.9
20260507155016 9 299 0.0 3.2 0.00 0.94 0.89 98 1015.8
20260507154506 9 299 0.0 4.8 0.00 0.94 0.89 98 1015.7
20260507154006 9 299 0.0 4.8 0.03 0.94 0.89 98 1015.8
20260507153508 9 299 0.0 3.2 0.08 0.94 0.89 98 1015.7
20260507153231 9 299 0.0 0.0 0.13 0.94 0.89 97 1015.6
20260507152934 8 299 0.0 0.0 0.15 0.94 0.89 97 1015.6
20260507151941 8 299 0.0 1.6 0.15 0.94 0.89 97 1015.6
20260507151438 8 299 0.0 1.6 0.18 0.94 0.89 97 1015.6
20260507151410 8 299 0.0 0.0 0.18 0.94 0.89 97 1015.6
20260507150653 8 299 0.0 0.0 0.20 0.94 0.89 97 1015.5
20260507145916 8 299 0.0 1.6 0.20 0.94 0.89 97 1015.5
20260507145419 8 299 0.0 1.6 0.20 0.94 0.89 97 1015.5
20260507144912 8 299 0.0 0.0 0.20 0.94 0.89 97 1015.4
20260507144409 8 299 0.0 0.0 0.20 0.94 0.89 97 1015.5
20260507143856 8 299 0.0 0.0 0.15 0.89 0.86 97 1015.3
20260507143354 8 299 0.0 0.0 0.10 0.84 0.81 97 1015.3
20260507142852 8 299 0.0 0.0 0.08 0.81 0.76 97 1015.3
20260507142353 8 299 0.0 0.0 0.05 0.79 0.74 97 1015.4
20260507141852 8 299 0.0 0.0 0.05 0.79 0.74 97 1015.3
20260507141351 8 299 0.0 0.0 0.03 0.76 0.71 97 1015.3
20260507140842 8 299 0.0 0.0 0.03 0.76 0.71 97 1015.3
20260507140613 8 299 0.0 0.0 0.00 0.74 0.69 97 1015.1
20260507135843 8 299 0.0 0.0 0.00 0.74 0.69 97 1015.0
20260507135344 8 299 0.0 0.0 0.00 0.74 0.69 97 1014.9
20260507134838 8 299 0.0 0.0 0.00 0.74 0.69 97 1014.9
20260507134336 7 299 0.0 0.0 0.00 0.74 0.69 97 1014.9
20260507133828 7 299 0.0 0.0 0.00 0.74 0.69 97 1014.9
20260507133325 7 299 0.0 0.0 0.00 0.74 0.69 97 1014.8
20260507132813 7 299 0.0 0.0 0.00 0.74 0.69 97 1014.7
20260507132316 7 299 0.0 0.0 0.00 0.74 0.69 96 1014.7
20260507131816 7 299 0.0 0.0 0.00 0.74 0.69 96 1014.7
20260507131321 7 299 0.0 0.0 0.00 0.74 0.69 96 1014.7
20260507130809 7 299 0.0 0.0 0.00 0.74 0.69 96 1014.6
20260507130304 7 299 0.0 0.0 0.00 0.74 0.69 96 1014.4
20260507125759 7 299 0.0 0.0 0.00 0.74 0.69 96 1014.4
20260507125249 7 299 0.0 0.0 0.00 0.74 0.69 96 1014.4
20260507124748 7 299 0.0 0.0 0.00 0.74 0.69 96 1014.4
20260507124239 7 299 0.0 0.0 0.00 0.74 0.69 96 1014.3
20260507123740 7 299 0.0 0.0 0.00 0.74 0.69 96 1014.3
20260507123500 7 299 0.0 0.0 0.00 0.74 0.69 96 1014.3
20260507123224 7 299 0.0 0.0 0.00 0.74 0.69 96 1014.4
20260507122240 7 299 0.0 0.0 0.00 0.74 0.69 96 1014.3
20260507121741 7 299 0.0 0.0 0.00 0.74 0.69 96 1014.1
20260507121505 7 299 0.0 0.0 0.00 0.74 0.69 96 1014.1
20260507120728 7 299 0.0 0.0 0.00 0.74 0.69 96 1014.0
20260507120213 7 299 0.0 0.0 0.00 0.74 0.69 96 1014.0
20260507115711 7 299 0.0 0.0 0.00 0.74 0.69 96 1014.0
20260507115210 7 299 0.0 0.0 0.00 0.74 0.69 95 1013.9
20260507114710 7 299 0.0 0.0 0.00 0.74 0.69 95 1013.9
20260507114211 7 299 0.0 0.0 0.00 0.74 0.69 95 1014.0
20260507113937 7 299 0.0 0.0 0.00 0.74 0.69 95 1014.0
20260507113206 7 299 0.0 0.0 0.00 0.74 0.69 95 1013.9
20260507112702 7 299 0.0 0.0 0.00 0.74 0.69 95 1013.9
20260507112146 7 299 0.0 0.0 0.00 0.74 0.69 95 1013.9
20260507111644 7 299 0.0 0.0 0.00 0.74 0.69 95 1013.9
20260507111136 7 299 0.0 0.0 0.00 0.74 0.69 95 1013.9
20260507110637 7 299 0.0 0.0 0.00 0.74 0.69 95 1013.7
20260507110140 7 299 0.0 0.0 0.00 0.74 0.69 94 1013.8
20260507105637 7 299 0.0 0.0 0.00 0.74 0.69 94 1013.8
20260507105122 7 299 0.0 0.0 0.00 0.74 0.69 94 1013.8
20260507104836 7 299 0.0 0.0 0.00 0.74 0.69 94 1013.7
20260507104120 7 299 0.0 0.0 0.00 0.74 0.69 93 1013.6
20260507103611 7 299 0.0 0.0 0.00 0.74 0.69 94 1013.6
20260507103108 7 299 0.0 0.0 0.00 0.74 0.69 94 1013.6
20260507102607 7 299 0.0 0.0 0.00 0.74 0.69 94 1013.6
20260507102110 8 299 0.0 0.0 0.00 0.74 0.69 94 1013.6
20260507101806 8 299 0.0 0.0 0.00 0.74 0.69 94 1013.6
20260507101048 8 299 0.0 0.0 0.00 0.74 0.69 95 1013.7
20260507100549 8 299 0.0 0.0 0.00 0.74 0.69 95 1013.7
20260507100043 8 299 0.0 0.0 0.00 0.74 0.69 95 1013.7
20260507095538 8 299 0.0 0.0 0.00 0.74 0.69 94 1013.8
20260507095033 8 299 0.0 0.0 0.00 0.74 0.69 95 1013.8
20260507094532 8 299 0.0 0.0 0.00 0.74 0.69 95 1013.8
20260507094028 8 299 0.0 0.0 0.00 0.74 0.69 95 1013.8
20260507093515 8 299 0.0 0.0 0.00 0.74 0.69 94 1013.8
20260507093014 8 299 0.0 0.0 0.03 0.74 0.69 94 1013.8
20260507092813 8 299 0.0 0.0 0.10 0.74 0.69 95 1013.8
20260507092510 8 299 0.0 0.0 0.05 0.74 0.69 95 1013.8
20260507092445 8 299 0.0 0.0 0.13 0.74 0.69 95 1013.7
20260507091004 8 299 0.0 0.0 0.15 0.74 0.69 95 1013.6
20260507090500 8 299 0.0 0.0 0.18 0.74 0.69 95 1013.8
20260507090000 8 299 0.0 3.2 0.18 0.74 0.69 94 1013.6
20260507085455 9 299 0.0 3.2 0.20 0.74 0.69 94 1014.1
20260507084953 9 299 0.0 0.0 0.20 0.74 0.69 94 1014.4
20260507084656 9 299 0.0 0.0 0.25 0.74 0.69 94 1014.3
20260507083938 9 299 0.0 1.6 0.28 0.74 0.69 94 1014.1
20260507083652 9 299 0.0 3.2 0.30 0.74 0.69 94 1014.1
20260507082936 9 299 0.0 3.2 0.28 0.71 0.66 94 1014.5
20260507082707 9 299 0.0 3.2 0.25 0.66 0.61 94 1014.5
20260507081931 9 299 0.0 0.0 0.41 0.64 0.58 94 1014.9
20260507081432 9 299 0.0 0.0 0.53 0.58 0.56 94 1014.8
20260507081122 9 299 0.0 0.0 0.51 0.56 0.51 93 1014.6
20260507081011 9 299 0.0 0.0 0.53 0.58 0.53 94 1014.8
20260507075927 9 299 0.0 0.0 0.48 0.53 0.51 93 1014.5
20260507075425 9 299 0.0 0.0 0.48 0.53 0.48 93 1014.3
20260507074917 9 299 0.0 0.0 0.46 0.51 0.48 93 1014.3
20260507074413 9 299 0.0 0.0 0.43 0.48 0.43 92 1014.3
20260507073912 9 299 0.0 0.0 0.41 0.46 0.41 92 1014.0
20260507073412 9 299 0.0 4.8 0.38 0.43 0.41 92 1014.1
20260507072908 9 299 0.0 6.4 0.38 0.43 0.38 91 1014.1
20260507072452 9 322 1.6 6.4 0.30 0.36 0.33 91 1014.1
20260507071908 10 323 1.6 8.0 0.18 0.23 0.23 91 1014.0
20260507071403 9 316 1.6 8.0 0.00 0.05 0.00 91 1013.7
20260507070858 9 0 1.6 6.4 0.00 0.05 0.00 92 1013.8
20260507070359 9 279 0.0 3.2 0.00 0.05 0.00 92 1013.1
20260507065859 10 279 0.0 3.2 0.00 0.05 0.00 92 1012.6
20260507065359 10 279 0.0 3.2 0.00 0.05 0.00 91 1012.1
20260507064902 10 279 0.0 3.2 0.00 0.05 0.00 91 1011.9
20260507064349 10 279 0.0 0.0 0.00 0.05 0.00 91 1012.0
20260507063840 10 279 0.0 0.0 0.00 0.05 0.00 91 1012.1
20260507063333 10 279 0.0 1.6 0.00 0.05 0.00 91 1012.6
20260507062830 10 279 0.0 1.6 0.00 0.05 0.00 91 1012.5
20260507062330 10 279 0.0 1.6 0.00 0.05 0.00 91 1012.6
20260507061830 10 279 0.0 0.0 0.00 0.05 0.00 91 1012.6
20260507061548 10 279 0.0 0.0 0.00 0.05 0.00 91 1012.2
20260507060825 10 279 0.0 0.0 0.00 0.05 0.00 91 1012.6
20260507060321 10 279 0.0 0.0 0.00 0.05 0.00 90 1012.5
20260507060034 10 279 0.0 0.0 0.00 0.05 0.05 90 1012.4
20260507055524 10 279 0.0 1.6 0.00 0.05 0.05 90 1012.4
20260507054806 10 279 0.0 1.6 0.00 0.05 0.05 90 1012.2
20260507054305 10 279 0.0 0.0 0.00 0.05 0.05 89 1012.1
20260507053811 10 279 0.0 1.6 0.00 0.05 0.05 89 1012.0
20260507053302 10 279 0.0 1.6 0.00 0.05 0.05 88 1012.0
20260507052801 10 279 0.0 0.0 0.03 0.05 0.05 88 1011.9
20260507052306 11 279 0.0 0.0 0.05 0.05 0.05 87 1011.8
20260507051752 11 279 0.0 3.2 0.05 0.05 0.05 86 1011.8
20260507051253 11 279 0.0 3.2 0.05 0.05 0.05 85 1011.8
20260507051232 11 279 0.0 0.0 0.05 0.05 0.05 84 1011.8
20260507050247 11 279 0.0 4.8 0.05 0.05 0.05 83 1012.0
20260507045740 11 279 0.0 8.0 0.05 0.05 0.05 82 1012.0
20260507045237 11 296 3.2 8.0 0.05 0.05 0.05 80 1012.4
20260507044739 11 299 3.2 14.5 0.05 0.05 0.05 82 1012.0
20260507044238 11 9 3.2 14.5 0.05 0.05 0.05 80 1011.6
20260507043738 11 325 3.2 12.9 0.05 0.05 0.05 82 1011.8
20260507043238 11 5 3.2 12.9 0.05 0.05 0.05 81 1011.6
20260507042738 11 212 1.6 12.9 0.03 0.03 0.03 80 1011.5
20260507042234 11 330 3.2 12.9 0.00 0.00 0.00 73 1011.5
20260507041731 11 206 3.2 6.4 0.00 0.00 0.00 71 1011.6
20260507041447 11 292 0.0 3.2 0.00 0.00 0.00 76 1011.6
20260507040724 11 292 0.0 3.2 0.00 0.00 0.00 75 1011.4
20260507040701 11 292 0.0 1.6 0.00 0.00 0.00 74 1011.4
20260507035728 11 292 0.0 3.2 0.00 0.00 0.00 74 1011.5
20260507035429 11 292 0.0 3.2 0.00 0.00 0.00 74 1011.6
20260507034709 11 292 0.0 3.2 0.00 0.00 0.00 73 1011.5
20260507034159 11 292 0.0 3.2 0.00 0.00 0.00 73 1011.5
20260507033700 11 292 0.0 3.2 0.00 0.00 0.00 72 1011.4
20260507033200 11 292 0.0 3.2 0.00 0.00 0.00 71 1011.4
20260507032700 11 292 0.0 3.2 0.00 0.00 0.00 71 1011.4
20260507032422 12 292 0.0 1.6 0.00 0.00 0.00 70 1011.4
20260507031656 12 292 0.0 1.6 0.00 0.00 0.00 69 1011.4
20260507031158 12 292 0.0 3.2 0.00 0.00 0.00 68 1011.5
20260507030657 12 292 0.0 3.2 0.00 0.00 0.00 67 1011.5
20260507030416 13 292 0.0 0.0 0.00 0.00 0.00 66 1011.5
20260507025656 13 292 0.0 1.6 0.00 0.00 0.00 65 1011.5
20260507025157 13 292 0.0 3.2 0.00 0.00 0.00 64 1011.5
20260507024654 14 292 0.0 3.2 0.00 0.00 0.00 64 1011.5
20260507024151 14 292 0.0 0.0 0.00 0.00 0.00 61 1011.5